| time (UTC) | temp F | wind direction | speed knots | gust knots | rain 1hr in | rain 24hr in | rain mn in | humidity % | barometer mb |
| 20260902131530 | 58 | 107 | 1.7 | 5.2 | 0.00 | 0.01 | 0.01 | 97 | 1008.2 |
| 20260902130015 | 57 | 179 | 0.0 | 7.0 | 0.00 | 0.01 | 0.01 | 99 | 1008.6 |
| 20260902124514 | 57 | 149 | 0.0 | 1.7 | 0.00 | 0.01 | 0.01 | 100 | 1008.7 |
| 20260902123015 | 57 | 154 | 0.0 | 0.0 | 0.00 | 0.01 | 0.01 | 100 | 1009.1 |
| 20260902121509 | 57 | 154 | 0.0 | 3.5 | 0.00 | 0.01 | 0.01 | 100 | 1009.3 |
| 20260902120008 | 57 | 129 | 0.0 | 4.3 | 0.00 | 0.01 | 0.01 | 100 | 1009.4 |
| 20260902114508 | 57 | 108 | 0.9 | 2.6 | 0.00 | 0.01 | 0.01 | 100 | 1009.7 |
| 20260902113004 | 57 | 124 | 0.9 | 2.6 | 0.00 | 0.01 | 0.01 | 100 | 1010.0 |
| 20260902111502 | 57 | 158 | 0.0 | 2.6 | 0.00 | 0.01 | 0.01 | 100 | 1010.2 |
| 20260902110001 | 57 | 155 | 0.0 | 0.9 | 0.00 | 0.01 | 0.01 | 100 | 1010.4 |
| 20260902104601 | 57 | 155 | 0.0 | 0.9 | 0.00 | 0.01 | 0.01 | 100 | 1010.3 |
| 20260902103105 | 57 | 155 | 0.0 | 0.9 | 0.00 | 0.01 | 0.01 | 100 | 1010.4 |
| 20260902101558 | 57 | 159 | 0.0 | 2.6 | 0.01 | 0.01 | 0.01 | 100 | 1010.4 |
| 20260902100112 | 57 | 160 | 0.0 | 0.9 | 0.01 | 0.01 | 0.01 | 100 | 1010.6 |
| 20260902094555 | 57 | 160 | 0.0 | 2.6 | 0.01 | 0.01 | 0.01 | 100 | 1010.7 |
| 20260902093054 | 58 | 133 | 0.0 | 2.6 | 0.01 | 0.01 | 0.01 | 100 | 1010.7 |
| 20260902091606 | 58 | 109 | 2.6 | 7.8 | 0.00 | 0.00 | 0.00 | 100 | 1011.0 |
| 20260902090051 | 58 | 197 | 0.9 | 5.2 | 0.00 | 0.00 | 0.00 | 100 | 1011.4 |
| 20260902084548 | 58 | 180 | 1.7 | 4.3 | 0.00 | 0.00 | 0.00 | 100 | 1011.4 |
| 20260902083046 | 58 | 170 | 1.7 | 7.8 | 0.00 | 0.00 | 0.00 | 100 | 1011.4 |
| 20260902081546 | 58 | 174 | 5.2 | 7.8 | 0.00 | 0.00 | 0.00 | 99 | 1011.5 |
| 20260902080058 | 59 | 188 | 5.2 | 11.3 | 0.00 | 0.00 | 0.00 | 99 | 1011.7 |
| 20260902074542 | 59 | 193 | 6.1 | 13.0 | 0.00 | 0.00 | 0.00 | 99 | 1011.8 |
| 20260902073038 | 59 | 189 | 6.1 | 13.0 | 0.00 | 0.00 | 0.00 | 99 | 1011.8 |
| 20260902071552 | 58 | 188 | 2.6 | 7.0 | 0.00 | 0.00 | 0.00 | 98 | 1012.0 |
| 20260902070032 | 57 | 174 | 0.0 | 1.7 | 0.00 | 0.00 | 0.00 | 96 | 1012.0 |
| 20260902064532 | 57 | 174 | 0.0 | 0.9 | 0.00 | 0.00 | 0.00 | 96 | 1012.2 |
| 20260902063041 | 57 | 174 | 0.0 | 0.9 | 0.00 | 0.00 | 0.00 | 96 | 1012.1 |
| 20260902061541 | 56 | 174 | 0.0 | 0.0 | 0.00 | 0.00 | 0.00 | 95 | 1012.1 |
| 20260902060032 | 57 | 174 | 0.0 | 0.0 | 0.00 | 0.00 | 0.00 | 93 | 1012.3 |
| 20260902054535 | 58 | 174 | 0.0 | 0.9 | 0.00 | 0.00 | 0.00 | 91 | 1012.4 |
| 20260902053027 | 59 | 174 | 0.0 | 1.7 | 0.00 | 0.00 | 0.00 | 91 | 1012.5 |
| 20260902051529 | 59 | 136 | 0.0 | 1.7 | 0.00 | 0.00 | 0.00 | 90 | 1012.4 |
| 20260902050031 | 59 | 176 | 0.0 | 2.6 | 0.00 | 0.00 | 0.00 | 91 | 1012.5 |
| 20260902044529 | 59 | 178 | 0.9 | 2.6 | 0.00 | 0.00 | 0.00 | 92 | 1012.8 |
| 20260902043021 | 60 | 178 | 0.0 | 1.7 | 0.00 | 0.00 | 0.00 | 91 | 1012.6 |
| 20260902041531 | 60 | 178 | 0.0 | 0.9 | 0.00 | 0.00 | 0.00 | 91 | 1012.7 |
| 20260902040020 | 60 | 178 | 0.0 | 0.0 | 0.00 | 0.00 | 0.00 | 90 | 1012.8 |
| 20260902034520 | 60 | 178 | 0.0 | 0.9 | 0.00 | 0.00 | 0.00 | 89 | 1012.8 |
| 20260902033020 | 61 | 177 | 0.9 | 3.5 | 0.00 | 0.00 | 0.00 | 89 | 1012.9 |
| 20260902031518 | 60 | 209 | 1.7 | 6.1 | 0.00 | 0.00 | 0.00 | 89 | 1012.8 |
| 20260902030022 | 61 | 199 | 2.6 | 7.0 | 0.00 | 0.00 | 0.00 | 89 | 1012.7 |
| 20260902024516 | 61 | 183 | 3.5 | 8.7 | 0.00 | 0.00 | 0.00 | 89 | 1012.8 |
| 20260902023019 | 61 | 205 | 3.5 | 10.4 | 0.00 | 0.00 | 0.00 | 88 | 1012.8 |
| 20260902021518 | 62 | 226 | 7.0 | 10.4 | 0.00 | 0.00 | 0.00 | 88 | 1013.0 |
| 20260902020015 | 62 | 214 | 4.3 | 9.6 | 0.00 | 0.00 | 0.00 | 87 | 1013.2 |
| 20260902014522 | 63 | 198 | 4.3 | 9.6 | 0.00 | 0.00 | 0.00 | 87 | 1013.1 |
| 20260902013015 | 64 | 205 | 6.1 | 13.0 | 0.00 | 0.00 | 0.00 | 86 | 1013.2 |
| 20260902011547 | 64 | 212 | 4.3 | 13.0 | 0.00 | 0.00 | 0.00 | 86 | 1013.2 |
| 20260902010022 | 65 | 215 | 4.3 | 11.3 | 0.00 | 0.00 | 0.00 | 85 | 1013.1 |
| 20260902004516 | 65 | 220 | 7.0 | 13.0 | 0.00 | 0.00 | 0.00 | 84 | 1013.0 |
| 20260902003010 | 65 | 251 | 7.0 | 13.9 | 0.00 | 0.00 | 0.00 | 85 | 1013.1 |
| 20260902001512 | 65 | 213 | 7.0 | 11.3 | 0.00 | 0.00 | 0.00 | 84 | 1013.0 |
| 20260902000015 | 65 | 174 | 7.0 | 11.3 | 0.00 | 0.00 | 0.00 | 84 | 1013.0 |
| 20260901234509 | 66 | 261 | 4.3 | 12.2 | 0.00 | 0.00 | 0.00 | 84 | 1013.0 |
| 20260901233010 | 67 | 195 | 7.0 | 12.2 | 0.00 | 0.00 | 0.00 | 80 | 1013.0 |
| 20260901231508 | 68 | 189 | 7.0 | 14.8 | 0.00 | 0.00 | 0.00 | 77 | 1013.2 |
| 20260901230011 | 69 | 211 | 9.6 | 15.6 | 0.00 | 0.00 | 0.00 | 76 | 1013.2 |
| 20260901224506 | 68 | 203 | 4.3 | 17.4 | 0.00 | 0.00 | 0.00 | 77 | 1013.2 |
| 20260901223014 | 68 | 205 | 9.6 | 17.4 | 0.00 | 0.00 | 0.00 | 77 | 1013.3 |
| 20260901221502 | 67 | 222 | 1.7 | 13.9 | 0.00 | 0.00 | 0.00 | 79 | 1013.1 |
| 20260901220001 | 67 | 201 | 6.1 | 14.8 | 0.00 | 0.00 | 0.00 | 81 | 1013.1 |
| 20260901214501 | 66 | 219 | 7.8 | 13.0 | 0.00 | 0.00 | 0.00 | 82 | 1013.1 |
| 20260901213108 | 66 | 197 | 9.6 | 15.6 | 0.00 | 0.00 | 0.00 | 83 | 1013.1 |
| 20260901211600 | 66 | 197 | 8.7 | 14.8 | 0.00 | 0.00 | 0.00 | 83 | 1013.2 |
| 20260901210059 | 67 | 199 | 4.3 | 13.0 | 0.00 | 0.00 | 0.00 | 83 | 1013.2 |
| 20260901204559 | 66 | 255 | 6.1 | 14.8 | 0.00 | 0.00 | 0.00 | 82 | 1013.2 |
| 20260901203104 | 67 | 214 | 6.1 | 13.9 | 0.00 | 0.00 | 0.00 | 82 | 1013.2 |
| 20260901201556 | 66 | 222 | 6.1 | 13.0 | 0.00 | 0.00 | 0.00 | 84 | 1013.1 |
| 20260901200106 | 66 | 294 | 2.6 | 11.3 | 0.00 | 0.00 | 0.00 | 85 | 1013.2 |
| 20260901194603 | 66 | 268 | 6.1 | 13.9 | 0.00 | 0.00 | 0.00 | 84 | 1013.4 |
| 20260901193101 | 66 | 202 | 3.5 | 10.4 | 0.00 | 0.00 | 0.00 | 88 | 1013.5 |
| 20260901191553 | 66 | 219 | 5.2 | 11.3 | 0.00 | 0.00 | 0.00 | 87 | 1013.5 |
| 20260901184552 | 66 | 194 | 5.2 | 12.2 | 0.00 | 0.00 | 0.00 | 85 | 1013.7 |
| 20260901183051 | 66 | 262 | 3.5 | 10.4 | 0.00 | 0.00 | 0.00 | 86 | 1013.6 |
| 20260901181549 | 65 | 198 | 0.9 | 8.7 | 0.00 | 0.00 | 0.00 | 87 | 1013.5 |
| 20260901180046 | 65 | 216 | 4.3 | 12.2 | 0.00 | 0.00 | 0.00 | 87 | 1013.5 |
| 20260901174556 | 65 | 243 | 2.6 | 11.3 | 0.00 | 0.00 | 0.00 | 88 | 1013.5 |
| 20260901173039 | 64 | 199 | 4.3 | 9.6 | 0.00 | 0.00 | 0.00 | 91 | 1013.4 |
| 20260901171539 | 63 | 212 | 5.2 | 8.7 | 0.00 | 0.00 | 0.00 | 91 | 1013.4 |
| 20260901170112 | 63 | 206 | 5.2 | 10.4 | 0.00 | 0.00 | 0.00 | 90 | 1013.4 |
| 20260901164537 | 63 | 204 | 2.6 | 5.2 | 0.00 | 0.00 | 0.00 | 91 | 1013.3 |
| 20260901163034 | 63 | 225 | 0.0 | 1.7 | 0.00 | 0.00 | 0.00 | 93 | 1013.2 |
| 20260901161531 | 62 | 176 | 1.7 | 5.2 | 0.00 | 0.00 | 0.00 | 93 | 1013.3 |
| 20260901160034 | 61 | 171 | 0.9 | 2.6 | 0.00 | 0.00 | 0.00 | 96 | 1013.3 |
| 20260901154525 | 60 | 178 | 0.0 | 2.6 | 0.00 | 0.00 | 0.00 | 97 | 1013.4 |
| 20260901153023 | 60 | 178 | 0.9 | 2.6 | 0.00 | 0.00 | 0.00 | 97 | 1013.3 |
| 20260901151523 | 59 | 176 | 0.9 | 3.5 | 0.00 | 0.00 | 0.00 | 98 | 1013.4 |
| 20260901150022 | 59 | 171 | 0.0 | 1.7 | 0.00 | 0.00 | 0.00 | 100 | 1013.2 |
| 20260901144521 | 59 | 174 | 0.0 | 2.6 | 0.00 | 0.00 | 0.00 | 100 | 1013.1 |
| 20260901143020 | 58 | 175 | 1.7 | 4.3 | 0.00 | 0.00 | 0.00 | 100 | 1013.3 |
| 20260901141519 | 58 | 182 | 0.9 | 3.5 | 0.00 | 0.00 | 0.00 | 100 | 1013.2 |
| 20260901140022 | 58 | 180 | 0.0 | 3.5 | 0.00 | 0.00 | 0.00 | 100 | 1013.1 |
| 20260901134518 | 57 | 176 | 0.0 | 1.7 | 0.00 | 0.00 | 0.00 | 100 | 1013.0 |
| 20260901133016 | 57 | 176 | 0.0 | 0.9 | 0.00 | 0.00 | 0.00 | 100 | 1013.1 |